| time (UTC) | temp F | wind direction | speed MPH | gust MPH | rain 1hr in | rain 24hr in | rain mn in | humidity % | barometer mb |
| 20260904053001 | 67 | 324 | 0.0 | 0.0 | 0.00 | 0.00 | 0.00 | 72 | 1013.8 |
| 20260904051601 | 67 | 311 | 0.0 | 0.0 | 0.00 | 0.00 | 0.00 | 72 | 1013.7 |
| 20260904050059 | 66 | 43 | 0.0 | 0.0 | 0.00 | 0.00 | 0.00 | 71 | 1013.5 |
| 20260904044557 | 67 | 43 | 0.0 | 0.0 | 0.00 | 0.00 | 0.00 | 73 | 1013.4 |
| 20260904043104 | 66 | 43 | 0.0 | 0.0 | 0.00 | 0.00 | 0.00 | 73 | 1013.7 |
| 20260904041554 | 66 | 43 | 0.0 | 0.0 | 0.00 | 0.00 | 0.00 | 73 | 1013.7 |
| 20260904040052 | 66 | 43 | 0.0 | 0.0 | 0.00 | 0.00 | 0.00 | 74 | 1013.5 |
| 20260904034550 | 66 | 43 | 0.0 | 0.0 | 0.00 | 0.00 | 0.00 | 74 | 1013.5 |
| 20260904033050 | 66 | 38 | 0.0 | 0.0 | 0.00 | 0.00 | 0.00 | 73 | 1013.4 |
| 20260904031551 | 66 | 37 | 0.0 | 0.0 | 0.00 | 0.00 | 0.00 | 73 | 1013.5 |
| 20260904030049 | 65 | 37 | 0.0 | 0.0 | 0.00 | 0.00 | 0.00 | 74 | 1013.2 |
| 20260904024558 | 65 | 37 | 0.0 | 0.0 | 0.00 | 0.00 | 0.00 | 75 | 1013.6 |
| 20260904023049 | 65 | 37 | 0.0 | 0.0 | 0.00 | 0.00 | 0.00 | 74 | 1013.6 |
| 20260904021553 | 66 | 32 | 0.0 | 1.0 | 0.00 | 0.00 | 0.00 | 73 | 1013.6 |
| 20260904020046 | 66 | 31 | 0.0 | 0.0 | 0.00 | 0.00 | 0.00 | 72 | 1013.3 |
| 20260904014550 | 67 | 31 | 0.0 | 0.0 | 0.00 | 0.00 | 0.00 | 71 | 1013.3 |
| 20260904013104 | 67 | 31 | 0.0 | 0.0 | 0.00 | 0.00 | 0.00 | 72 | 1013.4 |
| 20260904011542 | 68 | 32 | 0.0 | 0.0 | 0.00 | 0.00 | 0.00 | 71 | 1013.3 |
| 20260904010043 | 68 | 32 | 0.0 | 0.0 | 0.00 | 0.00 | 0.00 | 71 | 1012.8 |
| 20260904004541 | 69 | 32 | 0.0 | 3.0 | 0.00 | 0.00 | 0.00 | 69 | 1012.5 |
| 20260904003041 | 70 | 32 | 2.0 | 6.0 | 0.00 | 0.00 | 0.00 | 68 | 1012.2 |
| 20260904001555 | 69 | 18 | 2.0 | 4.0 | 0.00 | 0.00 | 0.00 | 69 | 1012.3 |
| 20260904000041 | 69 | 49 | 0.0 | 0.0 | 0.00 | 0.00 | 0.00 | 70 | 1012.4 |
| 20260903234540 | 70 | 49 | 0.0 | 0.0 | 0.00 | 0.00 | 0.00 | 67 | 1011.9 |
| 20260903233044 | 71 | 353 | 0.0 | 0.0 | 0.00 | 0.00 | 0.00 | 67 | 1012.0 |
| 20260903231542 | 72 | 354 | 0.0 | 0.0 | 0.00 | 0.00 | 0.00 | 64 | 1012.0 |
| 20260903230039 | 74 | 354 | 0.0 | 0.0 | 0.00 | 0.00 | 0.00 | 62 | 1011.9 |
| 20260903224541 | 74 | 354 | 0.0 | 0.0 | 0.00 | 0.00 | 0.00 | 64 | 1011.5 |
| 20260903223042 | 72 | 73 | 0.0 | 0.0 | 0.00 | 0.00 | 0.00 | 67 | 1011.7 |
| 20260903221538 | 70 | 47 | 0.0 | 0.0 | 0.00 | 0.00 | 0.00 | 69 | 1011.2 |
| 20260903220037 | 70 | 4 | 0.0 | 0.0 | 0.00 | 0.00 | 0.00 | 67 | 1011.7 |
| 20260903214538 | 70 | 49 | 0.0 | 5.0 | 0.00 | 0.00 | 0.00 | 68 | 1011.2 |
| 20260903213047 | 70 | 46 | 0.0 | 4.0 | 0.00 | 0.00 | 0.00 | 68 | 1011.1 |
| 20260903211534 | 69 | 43 | 0.0 | 2.0 | 0.00 | 0.00 | 0.00 | 70 | 1011.7 |
| 20260903210034 | 68 | 49 | 0.0 | 2.0 | 0.00 | 0.00 | 0.00 | 72 | 1011.5 |
| 20260903204536 | 68 | 40 | 0.0 | 6.0 | 0.00 | 0.00 | 0.00 | 70 | 1011.5 |
| 20260903203033 | 68 | 29 | 3.0 | 6.0 | 0.00 | 0.00 | 0.00 | 72 | 1012.4 |
| 20260903201533 | 68 | 30 | 0.0 | 4.0 | 0.00 | 0.00 | 0.00 | 69 | 1012.7 |
| 20260903200032 | 68 | 27 | 5.0 | 7.0 | 0.00 | 0.00 | 0.00 | 69 | 1013.6 |
| 20260903194530 | 68 | 27 | 5.0 | 8.0 | 0.00 | 0.00 | 0.00 | 69 | 1013.6 |
| 20260903193029 | 68 | 20 | 3.0 | 5.0 | 0.00 | 0.00 | 0.00 | 70 | 1013.4 |
| 20260903191538 | 68 | 30 | 4.0 | 8.0 | 0.00 | 0.00 | 0.00 | 72 | 1013.8 |
| 20260903190028 | 68 | 38 | 0.0 | 4.0 | 0.00 | 0.00 | 0.00 | 71 | 1012.6 |
| 20260903184527 | 69 | 39 | 0.0 | 2.0 | 0.00 | 0.00 | 0.00 | 69 | 1014.2 |
| 20260903183028 | 69 | 33 | 3.0 | 5.0 | 0.00 | 0.00 | 0.00 | 68 | 1013.0 |
| 20260903181522 | 69 | 39 | 3.0 | 9.0 | 0.00 | 0.00 | 0.00 | 68 | 1012.8 |
| 20260903180031 | 69 | 29 | 3.0 | 8.0 | 0.00 | 0.00 | 0.00 | 67 | 1012.6 |
| 20260903174523 | 70 | 29 | 4.0 | 11.0 | 0.00 | 0.00 | 0.00 | 67 | 1012.0 |
| 20260903173020 | 70 | 30 | 5.0 | 8.0 | 0.00 | 0.00 | 0.00 | 68 | 1012.7 |
| 20260903171520 | 70 | 34 | 2.0 | 9.0 | 0.00 | 0.00 | 0.00 | 70 | 1012.6 |
| 20260903170020 | 70 | 31 | 6.0 | 11.0 | 0.00 | 0.00 | 0.00 | 72 | 1012.4 |
| 20260903164519 | 70 | 28 | 6.0 | 11.0 | 0.00 | 0.00 | 0.00 | 73 | 1012.7 |
| 20260903163018 | 70 | 30 | 5.0 | 9.0 | 0.00 | 0.00 | 0.00 | 73 | 1012.8 |
| 20260903161517 | 70 | 27 | 6.0 | 10.0 | 0.00 | 0.00 | 0.00 | 73 | 1012.7 |
| 20260903160016 | 71 | 25 | 5.0 | 8.0 | 0.00 | 0.00 | 0.00 | 69 | 1012.8 |
| 20260903154515 | 71 | 30 | 4.0 | 8.0 | 0.00 | 0.00 | 0.00 | 67 | 1012.8 |
| 20260903153013 | 71 | 32 | 3.0 | 8.0 | 0.00 | 0.00 | 0.00 | 65 | 1012.6 |
| 20260903151512 | 71 | 31 | 3.0 | 6.0 | 0.00 | 0.00 | 0.00 | 65 | 1012.3 |
| 20260903150016 | 71 | 30 | 5.0 | 8.0 | 0.00 | 0.00 | 0.00 | 68 | 1012.4 |
| 20260903144515 | 72 | 27 | 4.0 | 8.0 | 0.00 | 0.00 | 0.00 | 66 | 1012.1 |
| 20260903143009 | 72 | 27 | 5.0 | 7.0 | 0.00 | 0.00 | 0.00 | 66 | 1012.1 |
| 20260903141510 | 73 | 24 | 0.0 | 0.0 | 0.00 | 0.00 | 0.00 | 64 | 1012.2 |
| 20260903140012 | 72 | 29 | 0.0 | 0.0 | 0.00 | 0.00 | 0.00 | 66 | 1012.2 |
| 20260903134509 | 72 | 34 | 0.0 | 3.0 | 0.00 | 0.00 | 0.00 | 65 | 1012.1 |
| 20260903133008 | 72 | 36 | 1.0 | 4.0 | 0.00 | 0.00 | 0.00 | 65 | 1012.2 |
| 20260903131507 | 71 | 38 | 0.0 | 2.0 | 0.00 | 0.00 | 0.00 | 67 | 1012.3 |
| 20260903130007 | 71 | 35 | 1.0 | 3.0 | 0.00 | 0.00 | 0.00 | 65 | 1012.5 |
| 20260903124506 | 72 | 39 | 0.0 | 0.0 | 0.00 | 0.00 | 0.00 | 65 | 1012.3 |
| 20260903123006 | 73 | 41 | 0.0 | 0.0 | 0.00 | 0.00 | 0.00 | 63 | 1012.4 |
| 20260903121512 | 75 | 46 | 0.0 | 0.0 | 0.00 | 0.00 | 0.00 | 60 | 1012.5 |
| 20260903120002 | 74 | 44 | 0.0 | 0.0 | 0.00 | 0.00 | 0.00 | 64 | 1012.4 |
| 20260903114605 | 73 | 46 | 0.0 | 0.0 | 0.00 | 0.00 | 0.00 | 66 | 1012.4 |
| 20260903113054 | 70 | 46 | 0.0 | 0.0 | 0.00 | 0.00 | 0.00 | 72 | 1012.3 |
| 20260903111552 | 67 | 46 | 0.0 | 0.0 | 0.00 | 0.00 | 0.00 | 77 | 1012.1 |
| 20260903110059 | 67 | 46 | 0.0 | 0.0 | 0.00 | 0.00 | 0.00 | 78 | 1011.9 |
| 20260903104550 | 67 | 46 | 0.0 | 0.0 | 0.00 | 0.00 | 0.00 | 77 | 1011.7 |
| 20260903103047 | 67 | 46 | 0.0 | 0.0 | 0.00 | 0.00 | 0.00 | 77 | 1011.7 |
| 20260903101549 | 67 | 46 | 0.0 | 0.0 | 0.00 | 0.00 | 0.00 | 77 | 1011.6 |
| 20260903100047 | 67 | 46 | 0.0 | 0.0 | 0.00 | 0.00 | 0.00 | 76 | 1011.5 |
| 20260903094544 | 67 | 46 | 0.0 | 0.0 | 0.00 | 0.00 | 0.00 | 76 | 1011.5 |
| 20260903093041 | 67 | 46 | 0.0 | 0.0 | 0.00 | 0.00 | 0.00 | 76 | 1011.5 |
| 20260903091539 | 68 | 46 | 0.0 | 0.0 | 0.00 | 0.00 | 0.00 | 75 | 1011.4 |
| 20260903090040 | 68 | 46 | 0.0 | 0.0 | 0.00 | 0.00 | 0.00 | 76 | 1011.3 |
| 20260903084540 | 68 | 46 | 0.0 | 0.0 | 0.00 | 0.00 | 0.00 | 76 | 1011.3 |
| 20260903083044 | 68 | 46 | 0.0 | 0.0 | 0.00 | 0.00 | 0.00 | 75 | 1011.3 |
| 20260903081536 | 69 | 45 | 0.0 | 0.0 | 0.00 | 0.00 | 0.00 | 75 | 1011.1 |
| 20260903080035 | 69 | 44 | 0.0 | 0.0 | 0.00 | 0.00 | 0.00 | 76 | 1011.2 |
| 20260903074534 | 69 | 44 | 0.0 | 1.0 | 0.00 | 0.00 | 0.00 | 77 | 1011.2 |
| 20260903073041 | 69 | 41 | 0.0 | 4.0 | 0.00 | 0.00 | 0.00 | 79 | 1011.2 |
| 20260903071532 | 69 | 44 | 0.0 | 0.0 | 0.00 | 0.00 | 0.00 | 79 | 1011.1 |
| 20260903070031 | 69 | 39 | 0.0 | 0.0 | 0.00 | 0.00 | 0.00 | 79 | 1011.1 |
| 20260903064528 | 70 | 39 | 0.0 | 0.0 | 0.00 | 0.00 | 0.00 | 79 | 1011.2 |
| 20260903063028 | 70 | 39 | 0.0 | 0.0 | 0.00 | 0.00 | 0.00 | 79 | 1011.3 |
| 20260903061541 | 70 | 43 | 0.0 | 0.0 | 0.00 | 0.00 | 0.00 | 79 | 1011.4 |
| 20260903060027 | 70 | 43 | 0.0 | 0.0 | 0.00 | 0.00 | 0.00 | 79 | 1011.4 |
| 20260903054525 | 70 | 43 | 0.0 | 0.0 | 0.00 | 0.00 | 0.00 | 79 | 1011.2 |